Stations météo

Publicité
La Rochelle/Ile de Re, France (7316): Température de l'air & dewpoint: 19.05.2018 12:00:00 - 25.05.2018 12:00:00 (CEST)La Rochelle/Ile de Re, France (7316): Vitesse du vent & gusts: 19.05.2018 12:00:00 - 25.05.2018 12:00:00 (CEST)La Rochelle/Ile de Re, France (7316): Direction du vent: 19.05.2018 12:00:00 - 25.05.2018 12:00:00 (CEST)La Rochelle/Ile de Re, France (7316): reduced air pressure: 19.05.2018 12:00:00 - 25.05.2018 12:00:00 (CEST)La Rochelle/Ile de Re, France (7316): visibility: 19.05.2018 12:00:00 - 25.05.2018 12:00:00 (CEST)La Rochelle/Ile de Re, France (7316): Ensoleillement: 19.05.2018 12:00:00 - 25.05.2018 12:00:00 (CEST)La Rochelle/Ile de Re, France (7316): Quantités de précipitations: 19.05.2018 12:00:00 - 25.05.2018 12:00:00 (CEST)
Date & Time tt [°C] td [°C] ff [km/h] ff [knt] fx [km/h] fx [knt] dd ppp [hPa] vv [km] sd [min] rr [mm]
25.05.2018 12:00:00 16,9 15,4 9 5 10 6 E 1015,9 8 0 0,6
25.05.2018 11:00:00 16,7 15,2 9 5 20 11 S 1016,0 4,2 0 1,8
25.05.2018 10:00:00 16,6 14,6 8 4 12 7 S 1016,1 4,3 0 1,4
25.05.2018 09:00:00 16,9 14,2 4 2 9 5 S 1015,5 12 0 0,2
25.05.2018 08:00:00 16,3 13,6 4 2 8 4 SE 1014,8 12 0 0,0
25.05.2018 07:00:00 15,7 13,0 5 3 10 5 E 1014,7 18 0 0,0
25.05.2018 06:00:00 16,1 13,4 7 4 10 5 NE 1014,5 16 0 0,0
25.05.2018 05:00:00 16,4 13,1 0 0 8 4 N 1014,8 17 0 0,0
25.05.2018 04:00:00 16,5 14,1 3 1 8 5 NNE 1015,1 15 0 0,0
25.05.2018 03:00:00 16,8 15,3 4 2 9 5 N 1015,4 8 0 0,0
25.05.2018 02:00:00 17,3 15,6 5 3 8 4 NNW 1015,5 11 0 0,0
25.05.2018 01:00:00 17,1 15,1 5 3 8 5 NNW 1015,8 12 0 0,0
25.05.2018 00:00:00 17,7 15,5 5 3 8 4 N 1016,1 15 0 0,0
24.05.2018 23:00:00 17,3 14,8 5 3 10 6 NNW 1016,3 15 0 0,0
24.05.2018 22:00:00 17,3 14,2 9 5 15 8 NW 1016,0 22 11 0,0
24.05.2018 21:00:00 18,1 14,4 9 5 19 11 NNW 1015,7 31 0 0,0
24.05.2018 20:00:00 18,7 14,2 15 8 23 12 NW 1015,4 42 19 0,0
24.05.2018 19:00:00 19,6 14,8 16 9 22 12 NNW 1015,1 32 29 0,0
24.05.2018 18:00:00 21,9 14,5 16 8 22 12 NW 1015,3 57 54 0,0
24.05.2018 17:00:00 22,7 13,7 16 9 23 12 NW 1015,4 60 60 0,0
24.05.2018 16:00:00 24,3 11,6 15 8 25 13 WNW 1016,0 20 57 0,0
24.05.2018 15:00:00 24,8 8,7 14 7 24 13 WSW 1016,1 45 60 0,0
24.05.2018 14:00:00 23,5 11,9 11 6 18 10 NW 1016,2 44 60 0,0
24.05.2018 13:00:00 22,6 11,9 11 6 16 9 NW 1016,5 34 60 0,0
24.05.2018 12:00:00 21,3 14,2 11 6 15 8 NW 1016,7 19 60 0,0
24.05.2018 11:00:00 20,6 14,5 9 5 14 8 NW 1016,8 19 60 0,0
24.05.2018 10:00:00 20,2 13,6 5 3 16 9 ESE 1016,9 30 60 0,0
24.05.2018 09:00:00 17,4 14,1 13 7 17 9 E 1016,8 20 56 0,0
24.05.2018 08:00:00 14,1 13,1 7 4 14 8 ENE 1016,6 12 54 0,0
24.05.2018 07:00:00 11,9 11,0 9 5 15 8 ENE 1016,5 6 12 0,0
24.05.2018 06:00:00 11,7 10,6 9 5 10 5 E 1016,5 10 0 0,0
24.05.2018 05:00:00 12,0 10,4 9 5 12 6 NE 1016,8 17 0 0,0
24.05.2018 04:00:00 12,7 11,1 7 4 10 6 ESE 1016,9 26 0 0,0
24.05.2018 03:00:00 12,6 10,8 9 5 14 8 ESE 1017,1 26 0 0,0
24.05.2018 02:00:00 13,4 11,1 11 6 14 8 ENE 1017,1 48 0 0,0
24.05.2018 01:00:00 14,7 11,1 6 4 22 12 SE 1016,7 60 0 0,0
24.05.2018 00:00:00 16,5 11,2 16 9 25 14 ESE 1016,8 60 0 0,0
23.05.2018 23:00:00 17,0 11,3 21 12 36 19 E 1017,2 60 0 0,0
23.05.2018 22:00:00 16,8 11,9 21 11 36 19 ENE 1017,2 55 4 0,0
23.05.2018 21:00:00 18,6 14,3 14 7 24 13 NNW 1016,7 20 29 0,0
23.05.2018 20:00:00 20,0 14,4 14 8 23 12 NW 1015,9 19 60 0,0
23.05.2018 19:00:00 21,3 14,5 15 8 22 12 NW 1015,8 19 60 0,0
23.05.2018 18:00:00 21,1 15,0 16 9 33 18 NNW 1016,1 18 51 0,0
23.05.2018 17:00:00 21,6 14,5 22 12 31 17 NW 1016,1 15 60 0,0
23.05.2018 16:00:00 20,6 14,9 21 11 27 15 NW 1016,5 15 14 0,0
23.05.2018 15:00:00 21,9 14,5 18 10 27 14 NW 1016,8 9 18 0,0
23.05.2018 14:00:00 22,8 14,9 18 10 27 15 NNW 1016,9 20 47 0,0
23.05.2018 13:00:00 23,8 13,3 11 6 26 14 NE 1017,4 60 60 0,0
23.05.2018 12:00:00 22,2 13,0 8 4 17 9 ENE 1017,7 19 60 0,0
23.05.2018 11:00:00 20,7 13,2 8 4 18 10 E 1017,7 20 60 0,0
23.05.2018 10:00:00 19,1 12,8 10 5 18 10 E 1017,7 20 60 0,0
23.05.2018 09:00:00 16,6 12,5 10 5 16 9 ENE 1017,6 10 60 0,0
23.05.2018 08:00:00 14,5 11,8 11 6 20 11 NE 1017,4 15 60 0,0
23.05.2018 07:00:00 13,1 11,2 12 6 18 10 NNE 1016,9 11 11 0,0
23.05.2018 06:00:00 13,5 11,2 12 7 21 11 NNE 1016,5 13 0 0,0
23.05.2018 05:00:00 14,4 11,5 13 7 20 11 NNE 1016,4 17 0 0,0
23.05.2018 04:00:00 15,4 12,0 14 8 23 12 NE 1015,9 20 0 0,0
23.05.2018 03:00:00 15,6 12,5 11 6 16 9 NNE 1016,1 18 0 0,0
23.05.2018 02:00:00 15,9 12,8 10 5 16 8 N 1016,2 19 0 0,0
23.05.2018 01:00:00 16,7 13,0 10 5 17 9 N 1016,3 20 0 0,0
23.05.2018 00:00:00 16,4 14,2 11 6 15 8 NW 1016,4 15 0 0,0
22.05.2018 23:00:00 16,5 14,1 9 5 18 10 NW 1016,1 16 0 0,0
22.05.2018 22:00:00 16,8 14,1 16 8 25 14 NW 1015,3 17 0 0,0
22.05.2018 21:00:00 17,3 13,8 20 11 39 21 NW 1014,8 18 54 0,0
22.05.2018 20:00:00 18,3 13,2 30 16 40 22 WNW 1014,5 18 47 0,0
22.05.2018 19:00:00 19,5 13,4 23 12 36 19 WNW 1014,5 13 47 0,0
22.05.2018 18:00:00 20,1 12,8 26 14 36 19 WNW 1014,4 12 45 0,0
22.05.2018 17:00:00 21,2 15,3 22 12 28 15 NW 1014,6 12 31 0,0
22.05.2018 16:00:00 20,2 15,2 17 9 21 12 NW 1014,5 11 46 0,0
22.05.2018 15:00:00 21,4 15,0 14 8 22 12 WNW 1014,6 17 60 0,0
22.05.2018 14:00:00 22,2 13,0 13 7 18 10 WNW 1014,5 19 60 0,0
22.05.2018 13:00:00 21,5 13,1 9 5 16 9 WNW 1014,7 17 58 0,0
22.05.2018 12:00:00 20,4 13,4 10 5 16 9 WNW 1014,7 19 60 0,0
22.05.2018 11:00:00 19,8 13,7 10 5 17 9 WNW 1014,4 15 60 0,2
22.05.2018 10:00:00 18,2 13,7 2 1 13 7 SSW 1014,3 18 60 0,0
22.05.2018 09:00:00 16,4 13,3 2 1 9 5 NNW 1013,9 20 60 0,0
22.05.2018 08:00:00 14,3 12,7 9 5 10 6 NE 1013,7 14 60 0,0
22.05.2018 07:00:00 13,7 11,4 7 4 8 4 N 1013,0 23 10 0,0
22.05.2018 06:00:00 13,6 11,3 2 1 5 3 N 1012,6 24 0 0,0
22.05.2018 05:00:00 13,6 11,1 3 2 8 4 NNE 1012,7 46 0 0,0
22.05.2018 04:00:00 14,9 11,9 5 3 11 6 S 1012,6 55 0 0,0
22.05.2018 03:00:00 14,5 11,6 6 3 11 6 S 1012,9 43 0 0,0
22.05.2018 02:00:00 13,9 11,6 9 5 13 7 E 1013,0 35 0 0,0
22.05.2018 01:00:00 16,6 12,7 6 3 9 5 N 1012,7 45 0 0,0
22.05.2018 00:00:00 17,9 11,7 3 2 8 4 SSW 1012,4 58 0 0,0
21.05.2018 23:00:00 16,3 11,7 4 2 15 8 E 1012,6 60 0 0,0
21.05.2018 22:00:00 17,6 10,0 12 7 17 9 ESE 1012,0 60 7 0,0
21.05.2018 21:00:00 18,9 11,0 14 7 26 14 E 1011,7 60 1 0,0
21.05.2018 20:00:00 20,3 11,8 8 4 19 11 N 1011,0 60 20 0,0
21.05.2018 19:00:00 21,9 11,0 10 5 29 16 NNW 1010,9 50 55 0,0
21.05.2018 18:00:00 22,6 13,4 16 9 25 14 NNW 1010,6 33 60 0,0
21.05.2018 17:00:00 22,4 13,5 16 8 30 16 NW 1010,5 19 60 0,0
21.05.2018 16:00:00 22,0 14,1 18 10 29 16 NW 1010,6 20 60 0,0
21.05.2018 15:00:00 24,0 12,3 15 8 23 12 WSW 1010,7 19 60 0,0
21.05.2018 14:00:00 23,4 13,0 12 6 18 10 W 1011,1 18 60 0,0
21.05.2018 13:00:00 23,4 14,1 9 5 21 12 W 1011,5 20 60 0,0
21.05.2018 12:00:00 22,9 11,9 10 5 18 10 ENE 1011,6 44 48 0,0
21.05.2018 11:00:00 20,5 11,9 6 3 14 8 E 1011,8 40 48 0,0
21.05.2018 10:00:00 19,3 11,8 9 5 17 9 ESE 1011,8 21 54 0,0
21.05.2018 09:00:00 15,5 10,9 12 6 16 9 E 1011,8 30 28 0,0
21.05.2018 08:00:00 15,1 10,7 11 6 26 14 E 1011,7 20 60 0,0
21.05.2018 07:00:00 13,7 9,9 16 9 23 12 E 1011,6 29 10 0,0
21.05.2018 06:00:00 13,2 9,4 15 8 21 12 E 1011,8 26 0 0,0
21.05.2018 05:00:00 13,1 9,2 14 8 18 10 ENE 1012,0 27 0 0,0
21.05.2018 04:00:00 13,2 8,7 13 7 17 9 ENE 1012,5 28 0 0,0
21.05.2018 03:00:00 14,1 8,9 14 7 17 9 NE 1012,9 32 0 0,0
21.05.2018 02:00:00 13,7 9,1 10 5 15 8 NE 1013,6 33 0 0,0
21.05.2018 01:00:00 14,1 9,1 13 7 17 9 NE 1014,1 34 0 0,0
21.05.2018 00:00:00 15,0 9,1 13 7 15 8 NE 1014,4 38 0 0,0
20.05.2018 23:00:00 16,5 9,4 11 6 15 8 NE 1014,4 42 0 0,0
20.05.2018 22:00:00 18,0 11,5 9 5 19 10 NNE 1014,1 40 11 0,0
20.05.2018 21:00:00 20,5 9,7 10 5 17 9 NE 1013,8 51 60 0,0
20.05.2018 20:00:00 19,7 12,5 14 8 24 13 NW 1013,7 45 60 0,0
20.05.2018 19:00:00 20,2 12,7 16 9 26 14 NW 1013,8 25 49 0,0
20.05.2018 18:00:00 23,7 8,9 13 7 31 17 NE 1014,3 36 60 0,0
20.05.2018 17:00:00 24,2 8,6 12 7 33 18 ENE 1014,9 20 60 0,0
20.05.2018 16:00:00 23,7 9,7 9 5 28 15 NE 1015,7 31 60 0,0
20.05.2018 15:00:00 22,9 8,2 13 7 35 19 ENE 1016,4 20 60 0,0
20.05.2018 14:00:00 22,1 6,7 23 12 40 21 NE 1017,3 20 60 0,0
20.05.2018 13:00:00 21,1 8,0 19 11 37 20 NE 1018,0 20 60 0,0
20.05.2018 12:00:00 20,3 8,3 22 12 39 21 NE 1018,5 20 60 0,0
20.05.2018 11:00:00 19,1 9,0 21 11 30 16 ENE 1018,8 19 60 0,0
20.05.2018 10:00:00 16,6 9,3 18 10 27 14 ENE 1019,0 19 60 0,0
20.05.2018 09:00:00 14,1 8,9 17 9 27 14 ENE 1018,9 19 60 0,0
20.05.2018 08:00:00 11,7 8,4 13 7 21 11 ENE 1018,8 16 60 0,0
20.05.2018 07:00:00 8,9 6,9 13 7 16 9 NE 1018,6 19 9 0,0
20.05.2018 06:00:00 9,3 6,7 12 7 19 10 ENE 1018,5 20 0 0,0
20.05.2018 05:00:00 9,6 6,9 14 8 17 9 NE 1018,5 24 0 0,0
20.05.2018 04:00:00 9,7 6,2 12 6 16 9 NE 1018,8 31 0 0,0
20.05.2018 03:00:00 10,2 6,0 11 6 14 8 NE 1019,2 39 0 0,0
20.05.2018 02:00:00 11,4 6,1 11 6 15 8 NE 1019,5 53 0 0,0
20.05.2018 01:00:00 12,4 5,5 9 5 14 8 NE 1019,7 60 0 0,0
20.05.2018 00:00:00 13,5 5,6 10 6 14 8 NE 1019,5 60 0 0,0
19.05.2018 23:00:00 14,8 5,6 11 6 16 9 NE 1019,5 56 0 0,0
19.05.2018 22:00:00 16,0 5,9 11 6 23 12 NE 1019,0 60 10 0,0
19.05.2018 21:00:00 19,5 5,5 16 8 24 13 NE 1018,5 58 60 0,0
19.05.2018 20:00:00 21,2 5,5 16 9 26 14 NE 1018,2 60 60 0,0
19.05.2018 19:00:00 22,1 5,9 16 9 34 18 NE 1018,1 55 60 0,0
19.05.2018 18:00:00 22,8 6,1 15 8 32 18 NE 1018,4 52 60 0,0
19.05.2018 17:00:00 22,8 6,5 18 10 36 19 NNE 1018,8 56 60 0,0
19.05.2018 16:00:00 22,3 5,7 19 10 35 19 NE 1019,2 20 60 0,0
19.05.2018 15:00:00 21,6 5,1 19 10 36 19 NE 1019,8 38 60 0,0
19.05.2018 14:00:00 21,2 5,5 18 10 37 20 NE 1020,1 34 60 0,0
19.05.2018 13:00:00 20,0 6,7 21 11 36 20 NE 1020,5 20 50 0,0
19.05.2018 12:00:00 19,9 6,6 20 11 36 19 ENE 1020,7 39 60 0,0

tt = Température de l'air
td = dewpoint
ff = Vitesse du vent
fx = gusts
dd = Direction du vent
ppp = reduced air pressure
vv = visibility
sd = Ensoleillement
rr = Quantités de précipitations

stations d'obs. à proximité